Weather History for Crestview, FL

Change the Weather History Date:

Wednesday, November 14, 2012

  Actual Average Record
Temperature  
Mean Temperature 50 °F -  
Max Temperature 57 °F 69 °F 84 °F (2008)
Min Temperature 42 °F 41 °F 27 °F (1977)
Degree Days  
Heating Degree Days 16    
Moisture  
Dew Point 47 °F    
Average Humidity 84    
Maximum Humidity 94    
Minimum Humidity 65    
Precipitation  
Precipitation 0.00 in - - ()
Sea Level Pressure  
Sea Level Pressure 30.24 in    
Wind  
Wind Speed 3 mph (NNE)    
Max Wind Speed 8 mph    
Max Gust Speed -    
Visibility 6 miles    
Events Rain    
Averages and records for this station are not official NWS values.
T = Trace of Precipitation, MM = Missing Value Source: NWS Daily Summary

Daily Weather History Graph

Daily Weather History Graph

Search for Another Location

Airport:

Trip Planner

Search our weather history database for the weather conditions in past years. The results will help you decide how hot, cold, wet, or windy it might be!

Date:

Astronomy

Nov. 14, 2012 Rise Set
Actual Time 6:12 AM CST 4:48 PM CST
Civil Twilight 5:46 AM CST 5:14 PM CST
Nautical Twilight 5:17 AM CST 5:43 PM CST
Astronomical Twilight 4:48 AM CST 6:12 PM CST
Moon 6:57 AM CST (11/14) 5:41 PM CST (11/14)
Length of Visible Light 11h 27m
Length of Day
10h 36m
New Moon, 1% of the Moon is Illuminated
Nov 14
New Moon
Nov 20
First Quarter
Nov 28
Full
Dec 6
Last Quarter
Dec 13
New

Hourly Weather History & Observations

Time (CST) Temp. Windchill Dew Point Humidity Pressure Visibility Wind Dir Wind Speed Gust Speed Precip Events Conditions
12:53 AM 43.0 °F 41.3 °F 32.0 °F 65% 30.24 in 10.0 mi North 3.5 mph - N/A   Clear
1:53 AM 42.1 °F - 32.0 °F 67% 30.23 in 10.0 mi Calm Calm - N/A   Clear
2:53 AM 42.1 °F 40.2 °F 33.1 °F 70% 30.23 in 10.0 mi North 3.5 mph - N/A   Clear
3:53 AM 42.1 °F - 33.1 °F 70% 30.23 in 10.0 mi Calm Calm - N/A   Clear
4:53 AM 42.1 °F 40.2 °F 34.0 °F 73% 30.24 in 10.0 mi North 3.5 mph - N/A   Clear
5:51 AM 42.8 °F 41.1 °F 37.4 °F 81% 30.24 in 10.0 mi North 3.5 mph - N/A   Scattered Clouds
5:53 AM 43.0 °F 41.3 °F 37.0 °F 80% 30.24 in 10.0 mi NNE 3.5 mph - N/A   Scattered Clouds
6:00 AM 44.6 °F 42.2 °F 37.4 °F 76% 30.24 in 10.0 mi NNE 4.6 mph - N/A   Mostly Cloudy
6:53 AM 45.0 °F 42.6 °F 41.0 °F 86% 30.26 in 10.0 mi Variable 4.6 mph - N/A   Overcast
7:35 AM 46.4 °F 45.2 °F 44.6 °F 93% 30.27 in 2.5 mi NNE 3.5 mph - N/A   Overcast
7:45 AM 46.4 °F 45.2 °F 44.6 °F 93% 30.28 in 3.0 mi NNE 3.5 mph - N/A   Overcast
7:53 AM 48.0 °F - 45.0 °F 89% 30.28 in 1.8 mi NNE 4.6 mph - N/A   Overcast
8:15 AM 48.2 °F - 44.6 °F 87% 30.27 in 2.5 mi Variable 3.5 mph - N/A   Overcast
8:27 AM 48.2 °F - 46.4 °F 93% 30.27 in 4.0 mi NNE 3.5 mph - N/A   Overcast
8:53 AM 51.1 °F - 46.9 °F 86% 30.27 in 6.0 mi Calm Calm - N/A   Overcast
9:03 AM 51.8 °F - 46.4 °F 82% 30.27 in 6.0 mi NE 3.5 mph - N/A   Overcast
9:50 AM 55.4 °F - 48.2 °F 77% 30.27 in 8.0 mi NNE 4.6 mph - N/A   Overcast
9:53 AM 55.9 °F - 48.9 °F 77% 30.27 in 8.0 mi NE 3.5 mph - N/A   Overcast
10:53 AM 57.0 °F - 50.0 °F 77% 30.26 in 8.0 mi Calm Calm - N/A   Overcast
11:32 AM 55.4 °F - 51.8 °F 88% 30.25 in 1.8 mi NE 3.5 mph - 0.00 in Rain Light Rain
11:38 AM 55.4 °F - 51.8 °F 88% 30.25 in 3.0 mi NE 3.5 mph - 0.00 in Rain Light Rain
11:53 AM 57.0 °F - 52.0 °F 83% 30.24 in 7.0 mi Calm Calm - 0.00 in   Overcast
12:53 PM 57.0 °F - 52.0 °F 83% 30.24 in 8.0 mi NNE 4.6 mph - N/A   Overcast
1:37 PM 57.2 °F - 51.8 °F 82% 30.22 in 8.0 mi NNE 8.1 mph - N/A   Overcast
1:53 PM 57.0 °F - 52.0 °F 83% 30.21 in 9.0 mi NE 5.8 mph - N/A   Overcast
2:53 PM 57.9 °F - 53.1 °F 84% 30.21 in 9.0 mi NNE 4.6 mph - N/A   Overcast
3:13 PM 57.2 °F - 53.6 °F 88% 30.22 in 7.0 mi NNE 4.6 mph - N/A   Overcast
3:53 PM 57.0 °F - 53.1 °F 87% 30.22 in 7.0 mi North 4.6 mph - N/A   Overcast
4:07 PM 57.2 °F - 53.6 °F 88% 30.22 in 5.0 mi NNE 3.5 mph - N/A   Overcast
4:53 PM 57.0 °F - 53.1 °F 87% 30.23 in 9.0 mi NNE 8.1 mph - N/A   Overcast
5:53 PM 55.9 °F - 52.0 °F 87% 30.24 in 10.0 mi Variable 3.5 mph - N/A   Overcast
6:53 PM 55.9 °F - 52.0 °F 87% 30.24 in 8.0 mi NNE 6.9 mph - N/A   Overcast
7:53 PM 55.0 °F - 52.0 °F 89% 30.25 in 3.0 mi ENE 4.6 mph - N/A   Overcast
8:00 PM 55.4 °F - 51.8 °F 88% 30.25 in 2.5 mi Calm Calm - N/A   Overcast
8:15 PM 53.6 °F - 51.8 °F 94% 30.25 in 4.0 mi NE 4.6 mph - N/A   Overcast
8:53 PM 54.0 °F - 52.0 °F 93% 30.25 in 4.0 mi NE 4.6 mph - N/A   Overcast
9:53 PM 54.0 °F - 52.0 °F 93% 30.24 in 2.5 mi NE 4.6 mph - N/A   Overcast
10:19 PM 53.6 °F - 51.8 °F 94% 30.24 in 3.0 mi NE 4.6 mph - N/A   Overcast
10:53 PM 54.0 °F - 52.0 °F 93% 30.24 in 3.0 mi NNE 4.6 mph - N/A   Overcast
11:53 PM 54.0 °F - 52.0 °F 93% 30.22 in 3.0 mi NNE 3.5 mph - N/A   Overcast